Time,TemperatureF,DewpointF,PressureIn,WindDirection,WindDirectionDegrees,WindSpeedMPH,WindSpeedGustMPH,Humidity,HourlyPrecipIn,Conditions,Clouds,dailyrainin,SoftwareType,DateUTC
2013-05-10 00:02:00,49.5,41.9,30.17,NW,306,0.0,0.0,75,0.00,,,0.00,meteohub,2013-05-10 07:02:00,
2013-05-10 00:07:00,49.3,41.4,30.17,NW,306,0.0,0.0,74,0.00,,,0.00,meteohub,2013-05-10 07:07:00,
2013-05-10 00:12:00,49.3,41.4,30.17,NW,306,0.0,0.0,74,0.00,,,0.00,meteohub,2013-05-10 07:12:00,
2013-05-10 00:17:00,49.1,40.8,30.17,NW,306,0.0,0.0,73,0.00,,,0.00,meteohub,2013-05-10 07:17:00,
2013-05-10 00:22:00,48.9,41.0,30.17,NW,306,0.0,0.0,74,0.00,,,0.00,meteohub,2013-05-10 07:22:00,
2013-05-10 00:27:00,48.7,40.8,30.17,NW,306,0.0,0.0,74,0.00,,,0.00,meteohub,2013-05-10 07:27:00,
2013-05-10 00:32:00,48.7,40.5,30.17,NW,306,0.0,0.0,73,0.00,,,0.00,meteohub,2013-05-10 07:32:00,
2013-05-10 00:37:00,48.7,40.5,30.17,NW,306,0.0,0.0,73,0.00,,,0.00,meteohub,2013-05-10 07:37:00,
2013-05-10 00:42:00,48.6,40.3,30.18,NW,306,0.0,0.0,73,0.00,,,0.00,meteohub,2013-05-10 07:42:00,
2013-05-10 00:47:00,48.4,40.1,30.18,NW,306,0.0,0.0,73,0.00,,,0.00,meteohub,2013-05-10 07:47:00,
2013-05-10 00:52:00,48.2,39.9,30.18,NW,306,0.0,0.0,73,0.00,,,0.00,meteohub,2013-05-10 07:52:00,
2013-05-10 00:57:00,48.0,40.1,30.18,NW,306,0.0,0.0,74,0.00,,,0.00,meteohub,2013-05-10 07:57:00,
2013-05-10 01:02:00,47.8,39.9,30.19,NW,306,0.0,0.0,74,0.00,,,0.00,meteohub,2013-05-10 08:02:00,
2013-05-10 01:07:00,47.7,39.7,30.19,NW,306,0.0,0.0,74,0.00,,,0.00,meteohub,2013-05-10 08:07:00,
2013-05-10 01:12:00,47.5,39.6,30.19,NW,306,0.0,0.0,74,0.00,,,0.00,meteohub,2013-05-10 08:12:00,
2013-05-10 01:17:00,47.3,39.4,30.19,NW,306,0.0,0.0,74,0.00,,,0.00,meteohub,2013-05-10 08:17:00,
2013-05-10 01:22:00,47.1,38.8,30.19,NW,306,0.0,0.0,73,0.00,,,0.00,meteohub,2013-05-10 08:22:00,
2013-05-10 01:27:00,47.1,38.8,30.19,NW,306,0.0,0.0,73,0.00,,,0.00,meteohub,2013-05-10 08:27:00,
2013-05-10 01:32:00,47.1,38.8,30.19,NW,306,0.0,0.0,73,0.00,,,0.00,meteohub,2013-05-10 08:32:00,
2013-05-10 01:37:00,47.1,38.5,30.19,NW,306,0.0,0.0,72,0.00,,,0.00,meteohub,2013-05-10 08:37:00,
2013-05-10 01:42:00,47.1,38.5,30.19,NW,306,0.0,0.0,72,0.00,,,0.00,meteohub,2013-05-10 08:42:00,
2013-05-10 01:47:00,47.1,38.5,30.19,NW,306,0.0,0.0,72,0.00,,,0.00,meteohub,2013-05-10 08:47:00,
2013-05-10 01:52:00,46.9,38.3,30.19,NW,306,0.0,0.0,72,0.00,,,0.00,meteohub,2013-05-10 08:52:00,
2013-05-10 01:57:00,46.9,38.3,30.19,NW,306,0.0,0.0,72,0.00,,,0.00,meteohub,2013-05-10 08:57:00,
2013-05-10 02:02:00,46.8,38.3,30.19,NW,306,0.0,0.0,72,0.00,,,0.00,meteohub,2013-05-10 09:02:00,
2013-05-10 02:07:00,46.8,38.3,30.19,NW,306,0.0,0.0,72,0.00,,,0.00,meteohub,2013-05-10 09:07:00,
2013-05-10 02:12:00,46.6,38.1,30.20,NW,306,0.0,0.0,72,0.00,,,0.00,meteohub,2013-05-10 09:12:00,
2013-05-10 02:17:00,46.4,37.9,30.20,NW,306,0.0,0.0,72,0.00,,,0.00,meteohub,2013-05-10 09:17:00,
2013-05-10 02:22:00,46.4,37.9,30.20,NW,306,0.0,0.0,72,0.00,,,0.00,meteohub,2013-05-10 09:22:00,
2013-05-10 02:27:00,46.2,37.8,30.20,NW,306,0.0,0.0,72,0.00,,,0.00,meteohub,2013-05-10 09:27:00,
2013-05-10 02:32:00,46.2,37.8,30.20,NW,306,0.0,0.0,72,0.00,,,0.00,meteohub,2013-05-10 09:32:00,
2013-05-10 02:37:00,46.2,37.4,30.20,NW,306,0.0,0.0,71,0.00,,,0.00,meteohub,2013-05-10 09:37:00,
2013-05-10 02:42:00,46.2,37.4,30.20,NW,306,0.0,0.0,71,0.00,,,0.00,meteohub,2013-05-10 09:42:00,
2013-05-10 02:47:00,46.0,37.2,30.20,NW,306,0.0,0.0,71,0.00,,,0.00,meteohub,2013-05-10 09:47:00,
2013-05-10 02:52:00,46.0,37.2,30.20,NW,306,0.0,0.0,71,0.00,,,0.00,meteohub,2013-05-10 09:52:00,
2013-05-10 02:57:00,46.0,37.2,30.21,NW,306,0.0,0.0,71,0.00,,,0.00,meteohub,2013-05-10 09:57:00,
2013-05-10 03:02:00,45.9,37.0,30.20,NW,306,0.0,0.0,71,0.00,,,0.00,meteohub,2013-05-10 10:02:00,
2013-05-10 03:07:00,45.7,37.2,30.20,NW,306,0.0,0.0,72,0.00,,,0.00,meteohub,2013-05-10 10:07:00,
2013-05-10 03:12:00,45.5,37.0,30.20,NW,306,0.0,0.0,72,0.00,,,0.00,meteohub,2013-05-10 10:12:00,
2013-05-10 03:17:00,45.3,36.9,30.20,NW,306,0.0,0.0,72,0.00,,,0.00,meteohub,2013-05-10 10:17:00,
2013-05-10 03:22:00,45.3,36.9,30.20,NW,306,0.0,0.0,72,0.00,,,0.00,meteohub,2013-05-10 10:22:00,
2013-05-10 03:27:00,45.1,36.7,30.21,NW,306,0.0,0.0,72,0.00,,,0.00,meteohub,2013-05-10 10:27:00,
2013-05-10 03:32:00,45.0,36.5,30.20,NW,306,0.0,0.0,72,0.00,,,0.00,meteohub,2013-05-10 10:32:00,
2013-05-10 03:37:00,45.0,36.5,30.20,NW,306,0.0,0.0,72,0.00,,,0.00,meteohub,2013-05-10 10:37:00,
2013-05-10 03:42:00,45.0,36.5,30.20,NW,306,0.0,0.0,72,0.00,,,0.00,meteohub,2013-05-10 10:42:00,
2013-05-10 03:47:00,44.8,36.0,30.20,NW,306,0.0,0.0,71,0.00,,,0.00,meteohub,2013-05-10 10:47:00,
2013-05-10 03:52:00,44.8,36.0,30.20,NW,306,0.0,0.0,71,0.00,,,0.00,meteohub,2013-05-10 10:52:00,
2013-05-10 03:57:00,44.6,35.8,30.20,NW,306,0.0,0.0,71,0.00,,,0.00,meteohub,2013-05-10 10:57:00,
2013-05-10 04:02:00,44.6,35.8,30.20,NW,306,0.0,0.0,71,0.00,,,0.00,meteohub,2013-05-10 11:02:00,
2013-05-10 04:07:00,44.4,35.6,30.20,NW,306,1.0,0.0,71,0.00,,,0.00,meteohub,2013-05-10 11:07:00,
2013-05-10 04:12:00,44.6,35.8,30.20,NW,306,0.0,1.0,71,0.00,,,0.00,meteohub,2013-05-10 11:12:00,
2013-05-10 04:17:00,44.6,35.8,30.20,NW,306,0.0,1.0,71,0.00,,,0.00,meteohub,2013-05-10 11:17:00,
2013-05-10 04:22:00,44.6,35.8,30.20,NW,306,0.0,1.0,71,0.00,,,0.00,meteohub,2013-05-10 11:22:00,
2013-05-10 04:27:00,44.4,35.6,30.19,NW,306,0.0,0.0,71,0.00,,,0.00,meteohub,2013-05-10 11:27:00,
2013-05-10 04:32:00,44.4,35.6,30.19,NW,306,0.0,0.0,71,0.00,,,0.00,meteohub,2013-05-10 11:32:00,
2013-05-10 04:37:00,44.4,35.2,30.19,NW,306,0.0,0.0,70,0.00,,,0.00,meteohub,2013-05-10 11:37:00,
2013-05-10 04:42:00,44.4,35.2,30.18,NW,306,0.0,0.0,70,0.00,,,0.00,meteohub,2013-05-10 11:42:00,
2013-05-10 04:47:00,44.4,35.2,30.19,NW,306,0.0,0.0,70,0.00,,,0.00,meteohub,2013-05-10 11:47:00,
2013-05-10 04:52:00,44.2,35.1,30.19,NW,306,0.0,0.0,70,0.00,,,0.00,meteohub,2013-05-10 11:52:00,
2013-05-10 04:57:00,44.1,34.9,30.19,NW,306,0.0,0.0,70,0.00,,,0.00,meteohub,2013-05-10 11:57:00,
2013-05-10 05:02:00,44.1,35.2,30.19,NW,306,0.0,0.0,71,0.00,,,0.00,meteohub,2013-05-10 12:02:00,
2013-05-10 05:07:00,43.9,35.1,30.19,NW,306,0.0,0.0,71,0.00,,,0.00,meteohub,2013-05-10 12:07:00,
2013-05-10 05:12:00,43.9,35.1,30.18,NW,306,0.0,0.0,71,0.00,,,0.00,meteohub,2013-05-10 12:12:00,
2013-05-10 05:17:00,43.9,34.7,30.18,NW,306,0.0,0.0,70,0.00,,,0.00,meteohub,2013-05-10 12:17:00,
2013-05-10 05:22:00,43.9,34.7,30.18,NW,306,0.0,0.0,70,0.00,,,0.00,meteohub,2013-05-10 12:22:00,
2013-05-10 05:27:00,43.9,34.7,30.18,NW,306,0.0,0.0,70,0.00,,,0.00,meteohub,2013-05-10 12:27:00,
2013-05-10 05:32:00,43.5,34.7,30.19,NW,306,0.0,0.0,71,0.00,,,0.00,meteohub,2013-05-10 12:32:00,
2013-05-10 05:37:00,43.3,34.5,30.19,NW,306,0.0,0.0,71,0.00,,,0.00,meteohub,2013-05-10 12:37:00,
2013-05-10 05:42:00,43.3,34.5,30.19,NW,306,0.0,0.0,71,0.00,,,0.00,meteohub,2013-05-10 12:42:00,
2013-05-10 05:47:00,43.3,34.2,30.19,NW,306,0.0,0.0,70,0.00,,,0.00,meteohub,2013-05-10 12:47:00,
2013-05-10 05:52:00,43.2,34.0,30.19,NW,306,0.0,0.0,70,0.00,,,0.00,meteohub,2013-05-10 12:52:00,
2013-05-10 05:57:00,43.2,34.0,30.19,NW,306,0.0,0.0,70,0.00,,,0.00,meteohub,2013-05-10 12:57:00,
2013-05-10 06:02:00,43.2,34.0,30.19,NW,306,0.0,0.0,70,0.00,,,0.00,meteohub,2013-05-10 13:02:00,
2013-05-10 06:07:00,43.2,34.0,30.19,NW,306,0.0,0.0,70,0.00,,,0.00,meteohub,2013-05-10 13:07:00,
2013-05-10 06:12:00,43.2,34.0,30.20,NW,306,0.0,0.0,70,0.00,,,0.00,meteohub,2013-05-10 13:12:00,
2013-05-10 06:17:00,43.2,34.0,30.20,NW,306,0.0,0.0,70,0.00,,,0.00,meteohub,2013-05-10 13:17:00,
2013-05-10 06:22:00,43.2,34.0,30.20,NW,306,0.0,0.0,70,0.00,,,0.00,meteohub,2013-05-10 13:22:00,
2013-05-10 06:27:00,43.0,33.8,30.20,NW,306,0.0,0.0,70,0.00,,,0.00,meteohub,2013-05-10 13:27:00,
2013-05-10 06:32:00,43.2,34.0,30.20,NW,306,0.0,0.0,70,0.00,,,0.00,meteohub,2013-05-10 13:32:00,
2013-05-10 06:37:00,43.3,34.2,30.21,NW,306,0.0,0.0,70,0.00,,,0.00,meteohub,2013-05-10 13:37:00,
2013-05-10 06:42:00,43.5,34.0,30.20,NW,306,0.0,0.0,69,0.00,,,0.00,meteohub,2013-05-10 13:42:00,
2013-05-10 06:47:00,43.7,34.2,30.21,NW,306,0.0,0.0,69,0.00,,,0.00,meteohub,2013-05-10 13:47:00,
2013-05-10 06:52:00,44.1,34.5,30.21,NW,306,0.0,0.0,69,0.00,,,0.00,meteohub,2013-05-10 13:52:00,
2013-05-10 06:57:00,44.2,34.3,30.21,NW,306,0.0,0.0,68,0.00,,,0.00,meteohub,2013-05-10 13:57:00,
2013-05-10 07:02:00,44.4,34.5,30.21,NW,306,0.0,0.0,68,0.00,,,0.00,meteohub,2013-05-10 14:02:00,
2013-05-10 07:07:00,44.6,34.7,30.21,NW,306,0.0,0.0,68,0.00,,,0.00,meteohub,2013-05-10 14:07:00,
2013-05-10 07:12:00,44.8,34.9,30.21,NW,306,0.0,0.0,68,0.00,,,0.00,meteohub,2013-05-10 14:12:00,
2013-05-10 07:17:00,45.1,35.2,30.21,NW,306,0.0,0.0,68,0.00,,,0.00,meteohub,2013-05-10 14:17:00,
2013-05-10 07:22:00,45.7,35.4,30.22,NW,306,0.0,0.0,67,0.00,,,0.00,meteohub,2013-05-10 14:22:00,
2013-05-10 07:27:00,46.0,35.8,30.21,NW,306,0.0,0.0,67,0.00,,,0.00,meteohub,2013-05-10 14:27:00,
2013-05-10 07:32:00,46.8,36.3,30.21,NW,306,0.0,0.0,67,0.00,,,0.00,meteohub,2013-05-10 14:32:00,
2013-05-10 07:37:00,47.3,36.5,30.21,NW,306,0.0,0.0,66,0.00,,,0.00,meteohub,2013-05-10 14:37:00,
2013-05-10 07:42:00,48.0,37.2,30.21,NW,306,0.0,0.0,66,0.00,,,0.00,meteohub,2013-05-10 14:42:00,
2013-05-10 07:47:00,48.7,37.9,30.21,NW,306,0.0,1.0,66,0.00,,,0.00,meteohub,2013-05-10 14:47:00,
2013-05-10 07:52:00,49.1,37.8,30.21,NW,306,0.0,1.0,65,0.00,,,0.00,meteohub,2013-05-10 14:52:00,
2013-05-10 07:57:00,49.6,38.3,30.21,NW,306,0.0,1.0,65,0.00,,,0.00,meteohub,2013-05-10 14:57:00,
2013-05-10 08:02:00,50.4,39.0,30.21,NW,306,0.0,0.0,65,0.00,,,0.00,meteohub,2013-05-10 15:02:00,
2013-05-10 08:07:00,50.7,39.4,30.21,NW,306,0.0,0.0,65,0.00,,,0.00,meteohub,2013-05-10 15:07:00,
2013-05-10 08:12:00,51.3,39.9,30.21,NW,306,0.0,0.0,65,0.00,,,0.00,meteohub,2013-05-10 15:12:00,
2013-05-10 08:17:00,51.6,39.9,30.21,NW,306,0.0,0.0,64,0.00,,,0.00,meteohub,2013-05-10 15:17:00,
2013-05-10 08:22:00,52.2,40.3,30.21,NW,306,0.0,0.0,64,0.00,,,0.00,meteohub,2013-05-10 15:22:00,
2013-05-10 08:27:00,52.3,40.5,30.20,NW,306,0.0,0.0,64,0.00,,,0.00,meteohub,2013-05-10 15:27:00,
2013-05-10 08:32:00,53.1,41.2,30.20,NW,306,0.0,0.0,64,0.00,,,0.00,meteohub,2013-05-10 15:32:00,
2013-05-10 08:37:00,53.2,41.4,30.20,NW,306,0.0,0.0,64,0.00,,,0.00,meteohub,2013-05-10 15:37:00,
2013-05-10 08:42:00,53.8,41.9,30.20,NW,306,0.0,0.0,64,0.00,,,0.00,meteohub,2013-05-10 15:42:00,
2013-05-10 08:47:00,54.3,42.1,30.20,NW,306,0.0,0.0,63,0.00,,,0.00,meteohub,2013-05-10 15:47:00,
2013-05-10 08:52:00,55.2,42.8,30.20,NW,306,0.0,0.0,63,0.00,,,0.00,meteohub,2013-05-10 15:52:00,
2013-05-10 08:57:00,55.9,43.5,30.20,NW,306,0.0,1.0,63,0.00,,,0.00,meteohub,2013-05-10 15:57:00,
2013-05-10 09:02:00,57.0,44.1,30.20,WNW,284,1.0,1.0,62,0.00,,,0.00,meteohub,2013-05-10 16:02:00,
2013-05-10 09:07:00,58.5,45.1,30.20,West,265,2.0,3.0,61,0.00,,,0.00,meteohub,2013-05-10 16:07:00,
2013-05-10 09:12:00,60.3,49.6,30.20,West,269,1.0,4.0,68,0.00,,,0.00,meteohub,2013-05-10 16:12:00,
2013-05-10 09:17:00,62.4,54.7,30.20,West,270,0.0,4.0,76,0.00,,,0.00,meteohub,2013-05-10 16:17:00,
2013-05-10 09:22:00,63.1,57.2,30.20,West,275,0.0,4.0,81,0.00,,,0.00,meteohub,2013-05-10 16:22:00,
2013-05-10 09:27:00,64.0,57.4,30.20,West,274,0.0,4.0,79,0.00,,,0.00,meteohub,2013-05-10 16:27:00,
2013-05-10 09:32:00,64.8,58.1,30.20,West,273,0.0,4.0,79,0.00,,,0.00,meteohub,2013-05-10 16:32:00,
2013-05-10 09:37:00,65.8,58.8,30.20,NW,305,1.0,4.0,78,0.00,,,0.00,meteohub,2013-05-10 16:37:00,
2013-05-10 09:42:00,66.9,58.3,30.20,West,264,5.0,5.0,74,0.00,,,0.00,meteohub,2013-05-10 16:42:00,
2013-05-10 09:47:00,67.8,57.7,30.20,NW,312,5.0,5.0,70,0.00,,,0.00,meteohub,2013-05-10 16:47:00,
2013-05-10 09:52:00,68.5,57.6,30.20,NW,322,0.0,6.0,68,0.00,,,0.00,meteohub,2013-05-10 16:52:00,
2013-05-10 09:57:00,69.1,57.2,30.20,NNW,337,0.0,6.0,66,0.00,,,0.00,meteohub,2013-05-10 16:57:00,
2013-05-10 10:02:00,69.4,57.2,30.20,NW,321,1.0,6.0,65,0.00,,,0.00,meteohub,2013-05-10 17:02:00,
2013-05-10 10:07:00,70.0,58.1,30.20,NW,321,1.0,6.0,66,0.00,,,0.00,meteohub,2013-05-10 17:07:00,
2013-05-10 10:12:00,70.3,58.8,30.20,NW,320,5.0,6.0,67,0.00,,,0.00,meteohub,2013-05-10 17:12:00,
2013-05-10 10:16:00,70.3,57.2,30.20,NNW,327,0.0,7.0,63,0.00,,,0.00,meteohub,2013-05-10 17:16:00,
2013-05-10 10:22:00,70.5,58.1,30.20,NW,314,0.0,7.0,65,0.00,,,0.00,meteohub,2013-05-10 17:22:00,
2013-05-10 10:27:00,70.9,58.1,30.20,WNW,284,0.0,7.0,64,0.00,,,0.00,meteohub,2013-05-10 17:27:00,
2013-05-10 10:32:00,71.6,58.8,30.20,NW,322,0.0,5.0,64,0.00,,,0.00,meteohub,2013-05-10 17:32:00,
2013-05-10 10:37:00,71.8,59.0,30.20,SW,214,1.0,5.0,64,0.00,,,0.00,meteohub,2013-05-10 17:37:00,
2013-05-10 10:42:00,71.8,58.1,30.20,NW,321,0.0,6.0,62,0.00,,,0.00,meteohub,2013-05-10 17:42:00,
2013-05-10 10:47:00,71.8,56.7,30.19,SW,217,0.0,6.0,59,0.00,,,0.00,meteohub,2013-05-10 17:47:00,
2013-05-10 10:52:00,71.1,56.8,30.19,SW,221,0.0,6.0,61,0.00,,,0.00,meteohub,2013-05-10 17:52:00,
2013-05-10 10:57:00,71.6,58.3,30.19,NW,325,1.0,5.0,63,0.00,,,0.00,meteohub,2013-05-10 17:57:00,
2013-05-10 11:02:00,72.3,57.7,30.19,ENE,57,0.0,5.0,60,0.00,,,0.00,meteohub,2013-05-10 18:02:00,
2013-05-10 11:07:00,72.9,59.5,30.19,NW,317,2.0,5.0,63,0.00,,,0.00,meteohub,2013-05-10 18:07:00,
2013-05-10 11:12:00,73.6,58.3,30.19,NNW,327,0.0,5.0,59,0.00,,,0.00,meteohub,2013-05-10 18:12:00,
2013-05-10 11:17:00,73.6,56.8,30.19,East,96,0.0,5.0,56,0.00,,,0.00,meteohub,2013-05-10 18:17:00,
2013-05-10 11:22:00,73.9,58.3,30.19,WNW,290,0.0,5.0,58,0.00,,,0.00,meteohub,2013-05-10 18:22:00,
2013-05-10 11:27:00,74.7,58.5,30.19,North,355,0.0,3.0,57,0.00,,,0.00,meteohub,2013-05-10 18:27:00,
2013-05-10 11:32:00,75.2,57.9,30.19,WNW,302,3.0,5.0,55,0.00,,,0.00,meteohub,2013-05-10 18:32:00,
2013-05-10 11:37:00,75.6,57.7,30.19,NW,319,3.0,7.0,54,0.00,,,0.00,meteohub,2013-05-10 18:37:00,
2013-05-10 11:42:00,75.7,59.0,30.19,NW,321,1.0,8.0,56,0.00,,,0.00,meteohub,2013-05-10 18:42:00,
2013-05-10 11:47:00,76.1,57.2,30.19,NNE,17,0.0,8.0,52,0.00,,,0.00,meteohub,2013-05-10 18:47:00,
2013-05-10 11:52:00,76.3,60.4,30.19,NNE,33,0.0,8.0,58,0.00,,,0.00,meteohub,2013-05-10 18:52:00,
2013-05-10 11:57:00,76.5,59.2,30.19,NNE,33,1.0,2.0,55,0.00,,,0.00,meteohub,2013-05-10 18:57:00,
2013-05-10 12:02:00,75.9,58.1,30.18,NW,316,2.0,3.0,54,0.00,,,0.00,meteohub,2013-05-10 19:02:00,
2013-05-10 12:07:00,76.5,59.2,30.18,NNW,344,3.0,4.0,55,0.00,,,0.00,meteohub,2013-05-10 19:07:00,
2013-05-10 12:12:00,76.6,57.2,30.18,West,263,3.0,7.0,51,0.00,,,0.00,meteohub,2013-05-10 19:12:00,
2013-05-10 12:17:00,76.1,58.3,30.18,NNE,20,0.0,7.0,54,0.00,,,0.00,meteohub,2013-05-10 19:17:00,
2013-05-10 12:22:00,76.3,57.9,30.18,West,277,0.0,5.0,53,0.00,,,0.00,meteohub,2013-05-10 19:22:00,
2013-05-10 12:27:00,77.0,59.5,30.18,NW,307,0.0,5.0,55,0.00,,,0.00,meteohub,2013-05-10 19:27:00,
2013-05-10 12:32:00,77.5,57.4,30.17,NNW,327,0.0,4.0,50,0.00,,,0.00,meteohub,2013-05-10 19:32:00,
2013-05-10 12:37:00,78.1,56.3,30.17,West,280,0.0,7.0,47,0.00,,,0.00,meteohub,2013-05-10 19:37:00,
2013-05-10 12:42:00,78.1,57.4,30.17,NW,325,5.0,7.0,49,0.00,,,0.00,meteohub,2013-05-10 19:42:00,
2013-05-10 12:47:00,78.1,55.0,30.17,ENE,66,0.0,7.0,45,0.00,,,0.00,meteohub,2013-05-10 19:47:00,
2013-05-10 12:52:00,78.3,57.0,30.17,NE,46,0.0,6.0,48,0.00,,,0.00,meteohub,2013-05-10 19:52:00,
2013-05-10 12:57:00,78.3,55.8,30.17,NW,316,3.0,6.0,46,0.00,,,0.00,meteohub,2013-05-10 19:57:00,
2013-05-10 13:02:00,78.6,57.2,30.17,WNW,288,0.0,6.0,48,0.00,,,0.00,meteohub,2013-05-10 20:02:00,
2013-05-10 13:07:00,78.8,56.3,30.17,East,79,1.0,4.0,46,0.00,,,0.00,meteohub,2013-05-10 20:07:00,
2013-05-10 13:12:00,78.4,57.2,30.17,ESE,123,1.0,4.0,48,0.00,,,0.00,meteohub,2013-05-10 20:12:00,
2013-05-10 13:17:00,78.8,56.3,30.17,WSW,257,0.0,6.0,46,0.00,,,0.00,meteohub,2013-05-10 20:17:00,
2013-05-10 13:22:00,79.0,57.0,30.17,NW,317,2.0,6.0,47,0.00,,,0.00,meteohub,2013-05-10 20:22:00,
2013-05-10 13:27:00,79.5,57.6,30.16,NNW,340,0.0,6.0,47,0.00,,,0.00,meteohub,2013-05-10 20:27:00,
2013-05-10 13:32:00,79.9,54.7,30.16,East,84,2.0,6.0,42,0.00,,,0.00,meteohub,2013-05-10 20:32:00,
2013-05-10 13:37:00,80.1,55.6,30.16,ENE,76,0.0,6.0,43,0.00,,,0.00,meteohub,2013-05-10 20:37:00,
2013-05-10 13:42:00,80.2,56.3,30.16,East,80,1.0,5.0,44,0.00,,,0.00,meteohub,2013-05-10 20:42:00,
2013-05-10 13:47:00,80.2,57.0,30.16,NNE,24,3.0,5.0,45,0.00,,,0.00,meteohub,2013-05-10 20:47:00,
2013-05-10 13:52:00,80.2,56.3,30.16,NNW,333,0.0,5.0,44,0.00,,,0.00,meteohub,2013-05-10 20:52:00,
2013-05-10 13:57:00,81.0,57.0,30.16,NW,309,1.0,5.0,44,0.00,,,0.00,meteohub,2013-05-10 20:57:00,
2013-05-10 14:02:00,80.8,55.6,30.16,ENE,77,0.0,7.0,42,0.00,,,0.00,meteohub,2013-05-10 21:02:00,
2013-05-10 14:07:00,79.9,53.4,30.16,SE,130,0.0,7.0,40,0.00,,,0.00,meteohub,2013-05-10 21:07:00,
2013-05-10 14:12:00,80.2,55.8,30.16,North,10,1.0,7.0,43,0.00,,,0.00,meteohub,2013-05-10 21:12:00,
2013-05-10 14:17:00,80.6,54.7,30.15,ENE,66,0.0,6.0,41,0.00,,,0.00,meteohub,2013-05-10 21:17:00,
2013-05-10 14:22:00,81.0,55.0,30.15,NW,325,0.0,6.0,41,0.00,,,0.00,meteohub,2013-05-10 21:22:00,
2013-05-10 14:27:00,81.3,54.0,30.15,East,81,0.0,5.0,39,0.00,,,0.00,meteohub,2013-05-10 21:27:00,
2013-05-10 14:32:00,81.7,57.0,30.15,ENE,71,0.0,3.0,43,0.00,,,0.00,meteohub,2013-05-10 21:32:00,
2013-05-10 14:37:00,82.0,55.4,30.15,NNW,340,1.0,3.0,40,0.00,,,0.00,meteohub,2013-05-10 21:37:00,
2013-05-10 14:42:00,82.2,56.1,30.15,North,355,0.0,3.0,41,0.00,,,0.00,meteohub,2013-05-10 21:42:00,
2013-05-10 14:47:00,82.6,54.3,30.15,NW,310,3.0,3.0,38,0.00,,,0.00,meteohub,2013-05-10 21:47:00,
2013-05-10 14:52:00,82.8,51.4,30.15,NNE,21,2.0,4.0,34,0.00,,,0.00,meteohub,2013-05-10 21:52:00,
2013-05-10 14:57:00,82.8,52.3,30.15,NNE,30,0.0,4.0,35,0.00,,,0.00,meteohub,2013-05-10 21:57:00,
2013-05-10 14:58:00,82.8,54.5,30.15,NW,305,1.0,4.0,38,0.00,,,0.00,meteohub,2013-05-10 21:58:00,
2013-05-10 15:03:00,82.9,51.6,30.15,WNW,296,0.0,5.0,34,0.00,,,0.00,meteohub,2013-05-10 22:03:00,
2013-05-10 15:08:00,82.8,54.5,30.15,NW,306,0.0,7.0,38,0.00,,,0.00,meteohub,2013-05-10 22:08:00,
2013-05-10 15:13:00,82.8,54.5,30.15,NNE,30,0.0,7.0,38,0.00,,,0.00,meteohub,2013-05-10 22:13:00,
2013-05-10 15:18:00,82.9,54.7,30.14,WNW,300,0.0,6.0,38,0.00,,,0.00,meteohub,2013-05-10 22:18:00,
2013-05-10 15:23:00,82.9,53.2,30.14,ESE,109,0.0,6.0,36,0.00,,,0.00,meteohub,2013-05-10 22:23:00,
2013-05-10 15:28:00,82.8,55.2,30.14,SE,132,0.0,6.0,39,0.00,,,0.00,meteohub,2013-05-10 22:28:00,
2013-05-10 15:33:00,82.6,52.9,30.14,NNE,32,1.0,6.0,36,0.00,,,0.00,meteohub,2013-05-10 22:33:00,
2013-05-10 15:38:00,82.4,56.3,30.14,NNW,337,0.0,6.0,41,0.00,,,0.00,meteohub,2013-05-10 22:38:00,
2013-05-10 15:43:00,82.2,52.5,30.14,East,96,0.0,3.0,36,0.00,,,0.00,meteohub,2013-05-10 22:43:00,
2013-05-10 15:48:00,82.0,54.7,30.14,NNE,28,0.0,2.0,39,0.00,,,0.00,meteohub,2013-05-10 22:48:00,
2013-05-10 15:53:00,82.2,52.5,30.14,West,269,1.0,2.0,36,0.00,,,0.00,meteohub,2013-05-10 22:53:00,
2013-05-10 15:58:00,82.8,53.1,30.13,WNW,300,0.0,3.0,36,0.00,,,0.00,meteohub,2013-05-10 22:58:00,
2013-05-10 16:04:00,82.9,57.6,30.13,NNE,12,0.0,3.0,42,0.00,,,0.00,meteohub,2013-05-10 23:04:00,
2013-05-10 16:09:00,83.1,54.1,30.13,East,94,1.0,3.0,37,0.00,,,0.00,meteohub,2013-05-10 23:09:00,
2013-05-10 16:14:00,82.9,53.2,30.13,WNW,295,0.0,4.0,36,0.00,,,0.00,meteohub,2013-05-10 23:14:00,
2013-05-10 16:19:00,82.8,53.1,30.13,SW,229,0.0,6.0,36,0.00,,,0.00,meteohub,2013-05-10 23:19:00,
2013-05-10 16:24:00,82.2,56.8,30.13,North,0,0.0,6.0,42,0.00,,,0.00,meteohub,2013-05-10 23:24:00,
2013-05-10 16:29:00,82.0,53.2,30.13,South,179,0.0,6.0,37,0.00,,,0.00,meteohub,2013-05-10 23:29:00,
2013-05-10 16:34:00,81.7,52.9,30.13,NE,50,0.0,3.0,37,0.00,,,0.00,meteohub,2013-05-10 23:34:00,
2013-05-10 16:39:00,81.7,54.3,30.12,ENE,64,0.0,5.0,39,0.00,,,0.00,meteohub,2013-05-10 23:39:00,
2013-05-10 16:44:00,81.7,53.6,30.12,NW,317,0.0,5.0,38,0.00,,,0.00,meteohub,2013-05-10 23:44:00,
2013-05-10 16:49:00,81.9,53.8,30.12,WNW,292,1.0,5.0,38,0.00,,,0.00,meteohub,2013-05-10 23:49:00,
2013-05-10 16:54:00,82.0,54.0,30.12,NNW,329,1.0,6.0,38,0.00,,,0.00,meteohub,2013-05-10 23:54:00,
2013-05-10 16:59:00,81.7,53.6,30.12,WNW,296,0.0,6.0,38,0.00,,,0.00,meteohub,2013-05-10 23:59:00,
2013-05-10 17:04:00,81.3,54.0,30.12,West,263,0.0,6.0,39,0.00,,,0.00,meteohub,2013-05-11 00:04:00,
2013-05-10 17:09:00,81.1,54.5,30.12,WNW,286,0.0,6.0,40,0.00,,,0.00,meteohub,2013-05-11 00:09:00,
2013-05-10 17:14:00,81.0,54.3,30.12,West,277,0.0,6.0,40,0.00,,,0.00,meteohub,2013-05-11 00:14:00,
2013-05-10 17:19:00,80.8,54.1,30.12,West,280,0.0,5.0,40,0.00,,,0.00,meteohub,2013-05-11 00:19:00,
2013-05-10 17:24:00,80.8,56.1,30.12,NW,316,3.0,5.0,43,0.00,,,0.00,meteohub,2013-05-11 00:24:00,
2013-05-10 17:29:00,80.6,54.7,30.12,NW,317,4.0,5.0,41,0.00,,,0.00,meteohub,2013-05-11 00:29:00,
2013-05-10 17:34:00,80.4,55.2,30.12,West,275,0.0,5.0,42,0.00,,,0.00,meteohub,2013-05-11 00:34:00,
2013-05-10 17:39:00,80.4,56.5,30.12,WNW,298,4.0,6.0,44,0.00,,,0.00,meteohub,2013-05-11 00:39:00,
2013-05-10 17:44:00,80.4,55.9,30.12,NW,325,4.0,6.0,43,0.00,,,0.00,meteohub,2013-05-11 00:44:00,
2013-05-10 17:49:00,80.2,57.0,30.12,NW,304,0.0,6.0,45,0.00,,,0.00,meteohub,2013-05-11 00:49:00,
2013-05-10 17:54:00,80.2,56.3,30.12,West,267,3.0,6.0,44,0.00,,,0.00,meteohub,2013-05-11 00:54:00,
2013-05-10 17:59:00,79.9,54.7,30.12,WNW,300,0.0,6.0,42,0.00,,,0.00,meteohub,2013-05-11 00:59:00,
2013-05-10 18:04:00,79.5,53.8,30.12,West,279,0.0,5.0,41,0.00,,,0.00,meteohub,2013-05-11 01:04:00,
2013-05-10 18:09:00,79.2,53.4,30.12,North,355,0.0,5.0,41,0.00,,,0.00,meteohub,2013-05-11 01:09:00,
2013-05-10 18:14:00,78.8,56.8,30.12,North,351,0.0,3.0,47,0.00,,,0.00,meteohub,2013-05-11 01:14:00,
2013-05-10 18:19:00,78.3,54.5,30.12,NW,310,2.0,5.0,44,0.00,,,0.00,meteohub,2013-05-11 01:19:00,
2013-05-10 18:24:00,77.7,57.0,30.12,NW,310,0.0,5.0,49,0.00,,,0.00,meteohub,2013-05-11 01:24:00,
2013-05-10 18:29:00,77.4,56.7,30.12,NW,310,0.0,4.0,49,0.00,,,0.00,meteohub,2013-05-11 01:29:00,
2013-05-10 18:34:00,76.8,56.3,30.12,NW,310,0.0,4.0,49,0.00,,,0.00,meteohub,2013-05-11 01:34:00,
2013-05-10 18:39:00,76.6,57.2,30.12,NW,310,0.0,0.0,51,0.00,,,0.00,meteohub,2013-05-11 01:39:00,
2013-05-10 18:44:00,76.3,57.4,30.12,NW,310,0.0,0.0,52,0.00,,,0.00,meteohub,2013-05-11 01:44:00,
2013-05-10 18:49:00,75.9,59.2,30.12,NW,310,0.0,0.0,56,0.00,,,0.00,meteohub,2013-05-11 01:49:00,
2013-05-10 18:54:00,75.6,58.8,30.12,NW,310,0.0,1.0,56,0.00,,,0.00,meteohub,2013-05-11 01:54:00,
2013-05-10 18:59:00,75.4,60.4,30.12,NW,310,0.0,1.0,60,0.00,,,0.00,meteohub,2013-05-11 01:59:00,
2013-05-10 19:04:00,74.8,57.0,30.12,NW,310,0.0,1.0,54,0.00,,,0.00,meteohub,2013-05-11 02:04:00,
2013-05-10 19:09:00,74.7,59.9,30.12,NW,310,0.0,0.0,60,0.00,,,0.00,meteohub,2013-05-11 02:09:00,
2013-05-10 19:14:00,74.1,58.5,30.12,NW,310,0.0,0.0,58,0.00,,,0.00,meteohub,2013-05-11 02:14:00,
2013-05-10 19:20:00,73.6,58.3,30.12,NW,310,0.0,0.0,59,0.00,,,0.00,meteohub,2013-05-11 02:20:00,
2013-05-10 19:25:00,73.0,56.5,30.12,NW,310,0.0,0.0,56,0.00,,,0.00,meteohub,2013-05-11 02:25:00,
2013-05-10 19:30:00,72.5,56.8,30.12,NW,310,0.0,0.0,58,0.00,,,0.00,meteohub,2013-05-11 02:30:00,
2013-05-10 19:35:00,72.0,58.3,30.12,NW,310,0.0,0.0,62,0.00,,,0.00,meteohub,2013-05-11 02:35:00,
2013-05-10 19:40:00,71.2,57.6,30.12,NW,310,0.0,0.0,62,0.00,,,0.00,meteohub,2013-05-11 02:40:00,
2013-05-10 19:45:00,70.7,57.0,30.12,NW,310,0.0,0.0,62,0.00,,,0.00,meteohub,2013-05-11 02:45:00,
2013-05-10 19:50:00,70.2,57.0,30.12,NW,310,0.0,0.0,63,0.00,,,0.00,meteohub,2013-05-11 02:50:00,
2013-05-10 19:55:00,69.4,56.3,30.12,NW,310,0.0,0.0,63,0.00,,,0.00,meteohub,2013-05-11 02:55:00,
2013-05-10 20:00:00,68.7,56.1,30.12,NW,310,0.0,0.0,64,0.00,,,0.00,meteohub,2013-05-11 03:00:00,
2013-05-10 20:05:00,68.2,55.9,30.12,NW,310,0.0,0.0,65,0.00,,,0.00,meteohub,2013-05-11 03:05:00,
2013-05-10 20:10:00,67.8,56.5,30.13,NW,310,0.0,0.0,67,0.00,,,0.00,meteohub,2013-05-11 03:10:00,
2013-05-10 20:15:00,67.3,56.3,30.13,NW,310,0.0,0.0,68,0.00,,,0.00,meteohub,2013-05-11 03:15:00,
2013-05-10 20:20:00,66.7,56.7,30.13,NW,310,0.0,0.0,70,0.00,,,0.00,meteohub,2013-05-11 03:20:00,
2013-05-10 20:25:00,66.4,56.7,30.13,NW,310,0.0,0.0,71,0.00,,,0.00,meteohub,2013-05-11 03:25:00,
2013-05-10 20:30:00,65.8,56.1,30.13,NW,310,0.0,0.0,71,0.00,,,0.00,meteohub,2013-05-11 03:30:00,
2013-05-10 20:35:00,65.7,55.9,30.13,NW,310,0.0,0.0,71,0.00,,,0.00,meteohub,2013-05-11 03:35:00,
2013-05-10 20:40:00,65.1,56.3,30.13,NW,310,0.0,0.0,73,0.00,,,0.00,meteohub,2013-05-11 03:40:00,
2013-05-10 20:45:00,64.8,56.3,30.14,NW,310,0.0,0.0,74,0.00,,,0.00,meteohub,2013-05-11 03:45:00,
2013-05-10 20:50:00,64.4,56.3,30.14,NW,310,0.0,0.0,75,0.00,,,0.00,meteohub,2013-05-11 03:50:00,
2013-05-10 20:55:00,64.0,56.3,30.14,NW,310,0.0,0.0,76,0.00,,,0.00,meteohub,2013-05-11 03:55:00,
2013-05-10 21:00:00,63.9,56.5,30.14,NW,310,0.0,0.0,77,0.00,,,0.00,meteohub,2013-05-11 04:00:00,
2013-05-10 21:01:00,63.7,56.3,30.14,NW,310,0.0,0.0,77,0.00,,,0.00,meteohub,2013-05-11 04:01:00,
2013-05-10 21:02:00,63.7,56.7,30.14,NW,310,0.0,0.0,78,0.00,,,0.00,meteohub,2013-05-11 04:02:00,
2013-05-10 21:07:00,63.3,56.7,30.14,NW,310,0.0,0.0,79,0.00,,,0.00,meteohub,2013-05-11 04:07:00,
2013-05-10 21:12:00,63.1,56.5,30.14,NW,310,0.0,0.0,79,0.00,,,0.00,meteohub,2013-05-11 04:12:00,
2013-05-10 21:17:00,62.8,56.1,30.14,NW,310,0.0,0.0,79,0.00,,,0.00,meteohub,2013-05-11 04:17:00,
2013-05-10 21:22:00,62.4,55.8,30.14,NW,310,0.0,0.0,79,0.00,,,0.00,meteohub,2013-05-11 04:22:00,
2013-05-10 21:27:00,62.2,55.9,30.14,NW,310,0.0,0.0,80,0.00,,,0.00,meteohub,2013-05-11 04:27:00,
2013-05-10 21:32:00,61.9,55.6,30.15,NW,310,0.0,0.0,80,0.00,,,0.00,meteohub,2013-05-11 04:32:00,
2013-05-10 21:37:00,61.5,54.9,30.15,NW,310,0.0,0.0,79,0.00,,,0.00,meteohub,2013-05-11 04:37:00,
2013-05-10 21:42:00,61.3,54.9,30.15,NW,310,0.0,0.0,79,0.00,,,0.00,meteohub,2013-05-11 04:42:00,
2013-05-10 21:47:00,61.0,54.5,30.16,WNW,282,0.0,4.0,79,0.00,,,0.00,meteohub,2013-05-11 04:47:00,
2013-05-10 21:52:00,60.6,54.1,30.16,WNW,282,0.0,4.0,79,0.00,,,0.00,meteohub,2013-05-11 04:52:00,
2013-05-10 21:57:00,60.4,54.3,30.16,WNW,282,0.0,4.0,80,0.00,,,0.00,meteohub,2013-05-11 04:57:00,
2013-05-10 22:02:00,60.1,54.0,30.16,WNW,282,0.0,0.0,80,0.00,,,0.00,meteohub,2013-05-11 05:02:00,
2013-05-10 22:07:00,59.7,53.6,30.16,WNW,282,0.0,0.0,80,0.00,,,0.00,meteohub,2013-05-11 05:07:00,
2013-05-10 22:12:00,59.5,53.4,30.17,WNW,282,0.0,0.0,80,0.00,,,0.00,meteohub,2013-05-11 05:12:00,
2013-05-10 22:17:00,59.2,52.7,30.17,WNW,282,0.0,0.0,79,0.00,,,0.00,meteohub,2013-05-11 05:17:00,
2013-05-10 22:22:00,59.0,52.5,30.17,WNW,282,0.0,0.0,79,0.00,,,0.00,meteohub,2013-05-11 05:22:00,
2013-05-10 22:27:00,58.6,51.8,30.17,WNW,282,0.0,0.0,78,0.00,,,0.00,meteohub,2013-05-11 05:27:00,
2013-05-10 22:32:00,58.5,51.6,30.17,WNW,282,0.0,0.0,78,0.00,,,0.00,meteohub,2013-05-11 05:32:00,
2013-05-10 22:37:00,58.3,51.4,30.17,WNW,282,0.0,0.0,78,0.00,,,0.00,meteohub,2013-05-11 05:37:00,
2013-05-10 22:42:00,57.9,51.1,30.17,WNW,282,0.0,0.0,78,0.00,,,0.00,meteohub,2013-05-11 05:42:00,
2013-05-10 22:47:00,57.9,50.7,30.17,WNW,282,0.0,0.0,77,0.00,,,0.00,meteohub,2013-05-11 05:47:00,
2013-05-10 22:52:00,57.7,50.2,30.17,WNW,282,0.0,0.0,76,0.00,,,0.00,meteohub,2013-05-11 05:52:00,
2013-05-10 22:57:00,57.6,50.0,30.17,WNW,282,0.0,0.0,76,0.00,,,0.00,meteohub,2013-05-11 05:57:00,
2013-05-10 23:02:00,57.4,49.5,30.17,WNW,282,0.0,0.0,75,0.00,,,0.00,meteohub,2013-05-11 06:02:00,
2013-05-10 23:07:00,57.2,49.3,30.17,WNW,282,0.0,0.0,75,0.00,,,0.00,meteohub,2013-05-11 06:07:00,
2013-05-10 23:12:00,57.2,48.9,30.18,WNW,282,0.0,0.0,74,0.00,,,0.00,meteohub,2013-05-11 06:12:00,
2013-05-10 23:17:00,57.0,48.7,30.17,WNW,282,0.0,0.0,74,0.00,,,0.00,meteohub,2013-05-11 06:17:00,
2013-05-10 23:22:00,57.0,48.4,30.17,WNW,282,0.0,0.0,73,0.00,,,0.00,meteohub,2013-05-11 06:22:00,
2013-05-10 23:27:00,57.0,48.4,30.17,WNW,282,0.0,0.0,73,0.00,,,0.00,meteohub,2013-05-11 06:27:00,
2013-05-10 23:32:00,56.8,48.2,30.17,WNW,282,0.0,0.0,73,0.00,,,0.00,meteohub,2013-05-11 06:32:00,
2013-05-10 23:37:00,56.8,48.2,30.17,WNW,282,0.0,0.0,73,0.00,,,0.00,meteohub,2013-05-11 06:37:00,
2013-05-10 23:42:00,56.8,47.8,30.17,WNW,282,0.0,0.0,72,0.00,,,0.00,meteohub,2013-05-11 06:42:00,
2013-05-10 23:47:00,56.8,47.8,30.17,WNW,282,0.0,0.0,72,0.00,,,0.00,meteohub,2013-05-11 06:47:00,
2013-05-10 23:52:00,56.8,47.8,30.18,WNW,282,0.0,0.0,72,0.00,,,0.00,meteohub,2013-05-11 06:52:00,
2013-05-10 23:57:00,56.8,48.2,30.18,WNW,282,0.0,0.0,73,0.00,,,0.00,meteohub,2013-05-11 06:57:00,